Regional Weather Roundup
Issued by NWS

Home | Current Version | Previous Version | Text Only | Print | Product List | Glossary Off
Versions: 1 2 3 4 5 6 7 8 9 10 11 12 13 14 15 16 17 18 19 20 21 22 23 24 25 26 27 28 29 30 31 32 33 34 35 36 37 38 39 40 41 42 43 44 45 46 47 48 49 50

000
ASUS43 KMKX 280121
RWRWI

WISCONSIN REGIONAL WEATHER ROUNDUP
NATIONAL WEATHER SERVICE MILWAUKEE/SULLIVAN WI
800 PM CDT FRI MAY 27 2016

NOTE: "FAIR" INDICATES FEW OR NO CLOUDS BELOW 12,000 FEET WITH NO
SIGNIFICANT WEATHER AND/OR OBSTRUCTIONS TO VISIBILITY.

WIZ001-002-006>008-014>016-023>028-280200-
NORTHWEST WISCONSIN

CITY           SKY/WX    TMP DP  RH WIND       PRES   REMARKS
SUPERIOR ARPT  LGT RAIN  47  47  99 NE10G16   29.83F
ASHLAND        LGT RAIN  48  47  96 NE6       29.82F FOG
HAYWARD        LGT RAIN  56  54  93 NE12      29.78F FOG
SIREN          CLOUDY    62  59  91 NE9       29.77S
CUMBERLAND     CLOUDY    63  59  88 N6        29.75S
RICE LAKE      DRIZZLE   62  60  94 N5        29.76S
CHETEK         DRIZZLE   62  62  99 NW5       29.74S
LADYSMITH      HVY RAIN  67  65  93 E3        29.76S
EAU CLAIRE     CLOUDY    67  65  93 W6        29.73R
MENOMONIE      MOCLDY    65  65  99 NW5       29.73F
NEW RICHMOND   CLOUDY    67  64  92 NE7       29.75S
OSCEOLA        MOCLDY    66  66 100 NE6       29.77S
$$

WIZ003>005-009-010-017-018-280200-
NORTH CENTRAL WISCONSIN

CITY           SKY/WX    TMP DP  RH WIND       PRES   REMARKS
MANITOWISH WTR NOT AVBL
ARBOR VITAE    MOCLDY    67  61  80 SE8       29.80F
WOODRUFF       MOCLDY    67  61  80 SE8       29.80F
RHINELANDER    CLOUDY    67  61  81 E15       29.83F
EAGLE RIVER      N/A     66  58  75 SE8       29.82F
LAND O LAKES   CLOUDY    67  60  79 SE8       29.84F
PHILLIPS       CLOUDY    67  62  84 E8        29.77S
TOMAHAWK       RAIN      65  62  90 SE3       29.82R
MEDFORD        DRIZZLE   65  65 100 E8        29.77S
MERRILL        LGT RAIN  66  66 100 SE3       29.82S
$$

WIZ029-030-035-036-043>047-280200-
CENTRAL WISCONSIN

CITY           SKY/WX    TMP DP  RH WIND       PRES   REMARKS
WAUSAU         RAIN      67  64  90 E10       29.78F FOG
MOSINEE        LGT RAIN  66  66 100 E12       29.80S FOG
MARSHFIELD     MOCLDY    69  65  86 E9        29.76F
STEVENS POINT  CLOUDY    66  65  99 E8        29.79F FOG
WAUPACA        RAIN      69  69  99 SE10G21   29.78S
WAUTOMA        CLOUDY    67  66  97 E3        29.78S
WISC RAPIDS    CLOUDY    69  65  86 E8        29.78S
CAMP DOUGLAS   MOCLDY    70 N/A N/A E8        29.75S
$$

WIZ011>013-019>022-031-037>040-048>050-280200-
NORTHEAST WISCONSIN

CITY           SKY/WX    TMP DP  RH WIND       PRES   REMARKS
ANTIGO         DRIZZLE   64  64 100 SE10      29.83F
SHAWANO        RAIN      68  65  92 SE7       29.83F
OCONTO         CLOUDY   N/A N/A N/A E6        29.85R
STURGEON BAY   NOT AVBL
GREEN BAY      CLOUDY    67  66  97 SE7       29.82F FOG
MANITOWOC      LGT RAIN  57  57 100 E8        29.85F FOG
APPLETON       LGT RAIN  66  66 100 S9        29.80R FOG
CLINTONVILLE   HVY RAIN  66  64  94 SE8       29.81S
OSHKOSH        LGT RAIN  67  65  93 SE8       29.80S
$$

WIZ032>034-041-042-053>061-280200-
SOUTHWEST WISCONSIN

CITY           SKY/WX    TMP DP  RH WIND       PRES   REMARKS
LA CROSSE      CLEAR     71  67  87 CALM      29.71R
SPARTA         DRIZZLE   70  69  96 CALM      29.74R
VIROQUA        MOCLDY    69  65  87 SE5       29.74S
BOSCOBEL       CLEAR     71  66  84 CALM      29.73R
PRAIRIE DU CHI CLEAR     68  67  96 CALM      29.73S
PLATTEVILLE    CLOUDY    73  68  84 S7        29.76S
$$

WIZ056-057-062-063-064-067-068-280200-
SOUTH CENTRAL WISCONSIN

CITY           SKY/WX    TMP DP  RH WIND       PRES   REMARKS
REEDSBURG      CLOUDY    71  68  91 SE3       29.75R
BARABOO/DELLS  CLOUDY    71  65  81 S8        29.77R
LONE ROCK      CLOUDY    75  66  73 S9        29.75R
MINERAL POINT  CLOUDY    73  68  83 S7        29.77S
MADISON        CLOUDY    73  66  78 S12       29.77S
MIDDLETON      CLOUDY    74  66  76 S8        29.77F
WATERTOWN      MOCLDY    70  70 100 SE7       29.80S
MONROE         MOCLDY    72  64  78 S10       29.79R
JANESVILLE     PTCLDY    75  66  73 S6        29.79R
$$

WIZ051-052-058>065-066-070>072-280200-
SOUTHEAST WISCONSIN

CITY           SKY/WX    TMP DP  RH WIND       PRES   REMARKS
MILWAUKEE      CLOUDY    67  64  90 SE9       29.83R
WAUKESHA       MOCLDY    70  66  88 SE10      29.83S
MILWAUKEE/TIMM CLOUDY    70  64  83 S7        29.83S
RACINE         CLOUDY    68  63  84 S12       29.85S
BURLINGTON     MOCLDY    70  67  90 SE6       29.82S FOG
KENOSHA        CLOUDY    70  65  84 SE10      29.83S
FOND DU LAC    CLOUDY    69  67  93 SE8       29.80F
SHEBOYGAN      CLOUDY    64  62  93 S9        29.84R FOG
WEST BEND      CLOUDY    66  64  94 S5        29.83S
JUNEAU         CLOUDY    69  66  93 SE8       29.82R
$$

LSZ147-162-280200-
LAKE SUPERIOR

STATION/POSITION TIME  TEMP    WIND        PRES    WAVE
                       AIR SEA DIR/SP/G            HT/PER
                 (UTC) (F)     (DEG/KT/KT) (MB)    (FT/S)
W MID LAKE BUOY  0050   41 38   40/ 16/ 17 1011.1F   1/ 3
DEVILS ISLAND    0100   44      30/  7/  8 1011.3F
SAXON HARBOR     0040   46     320/  1/  3 1009.8F
$$

LMZ867-665-643>646-280200-
LAKE MICHIGAN

STATION/POSITION TIME  TEMP    WIND        PRES    WAVE
                       AIR SEA DIR/SP/G            HT/PER
                 (UTC) (F)     (DEG/KT/KT) (MB)    (FT/S)
CHAMBERS ISLAND  0000   62      80/  5/  8 1011.5S
N MID LAKE BUOY  0050   51 47  120/  6/  8 1011.8F   0
NORTHPORT PIER   0000   54     140/  2/  3 1011.9F
SISTER BAY       0020   60     120/  7/  9   N/A
ALGOMA LAKESHORE 0017           70/ 10/ 11   N/A
KEWAUNEE LAKESHO 0000                      1010.6S
SHEBOYGAN LAKESH 0100   58     160/ 10/ 11 1010.7F
PORT WASHINGTON  0000   60     190/  4/  6 1010.8S
S MID LAKE BUOY  0050   58 51  150/ 12/ 14 1010.7R   1
KENOSHA   LAKESH 0100   63     180/ 12/ 15 1010.2F
$$

TC  - TEMPERATURE IN CELSIUS
VSB - VISIBILITY IN STATUTE MILES
WCI - WIND CHILL INDEX
HX  - HEAT INDEX





USA.gov is the U.S. government's official web portal to all federal, state and local government web resources and services.